Theta_e
328 328 329 334 335 335 334 335 339 346 344 350 344 344 339 336 338 337 341 342 349 347 355 359 358 361 358 360 359 359 360 361 362 361 359 358 355 355 354 354 355 351 349 350
327 328 328 331 331 330 332 332 332 333 334 336 342 341 338 336 338 334 342 344 344 351 356 362 359 365 361 360 360 359 360 361 362 359 357 357 354 353 354 352 350 350 349 349
328 328 329 329 329 329 329 329 330 331 332 332 338 340 338 336 341 345 343 343 346 348 358 356 359 362 364 360 361 360 362 362 360 358 359 358 355 355 354 352 352 350 350 348
330 331 333 332 332 332 330 336 339 339 339 337 338 336 345 345 345 348 348 347 349 346 354 355 355 359 359 361 362 362 366 363 360 362 359 356 356 355 351 354 355 351 352 347
332 333 334 337 337 336 335 342 341 343 344 343 342 339 350 347 347 345 343 343 346 341 345 356 357 360 361 362 363 365 366 364 364 362 359 358 355 353 351 354 354 352 350 349
334 335 336 338 335 335 333 345 339 342 345 347 347 343 353 349 349 349 344 348 351 349 348 356 358 363 363 365 366 365 365 364 364 362 360 358 354 352 352 354 355 350 349 347
336 338 340 337 335 336 334 344 338 339 342 346 350 351 350 349 351 351 353 347 352 354 354 357 358 361 364 366 366 366 366 365 364 362 360 358 356 353 354 354 354 351 350 350
333 336 341 334 336 341 340 337 336 336 336 338 340 342 344 345 349 352 356 354 350 356 356 364 362 363 365 366 366 366 366 365 364 362 359 357 357 355 352 354 353 353 353 353
340 338 333 332 332 331 332 331 330 330 330 333 334 336 339 340 343 347 350 355 355 355 357 362 361 364 367 368 366 366 367 366 364 362 359 357 358 357 355 356 355 355 355 354
336 333 332 330 329 328 329 329 329 328 328 329 330 332 334 336 338 339 345 352 353 358 359 359 360 365 365 366 367 368 368 366 363 363 360 359 358 359 357 357 356 352 354 354
337 334 333 332 329 327 327 328 327 327 327 327 327 329 331 333 336 335 338 343 350 356 361 363 362 363 363 365 367 368 368 366 365 363 360 360 358 358 356 355 355 354 351 354
333 330 331 330 327 326 327 327 326 326 326 326 325 327 330 332 333 333 335 337 343 350 356 360 363 364 363 363 367 366 367 365 364 362 360 358 359 357 355 354 355 353 352 353
327 326 326 325 325 324 324 324 325 324 325 325 325 324 324 329 331 330 333 334 335 339 348 355 356 362 364 362 364 365 366 364 362 360 358 356 357 358 358 354 353 353 352 350
324 324 325 324 324 324 324 323 323 323 324 324 324 325 326 327 327 330 333 332 331 332 336 342 349 351 358 358 361 360 361 363 363 361 358 357 355 355 355 356 353 351 350 350
325 324 324 324 324 325 324 325 325 325 325 324 324 325 326 329 330 329 328 329 330 331 330 335 336 342 348 349 351 352 354 351 354 358 357 344 358 356 355 353 353 353 352 350
324 324 324 324 325 325 325 325 325 325 325 325 327 326 325 326 326 327 327 328 330 332 333 331 334 335 336 342 344 344 346 355 357 354 348 348 348 342 341 348 356 354 356 353
324 324 323 323 323 324 324 324 324 325 324 324 325 326 327 329 327 327 327 327 327 328 331 334 331 331 334 335 336 341 341 339 348 341 346 341 335 337 338 338 334 355 357 356
322 323 322 323 323 324 324 323 323 322 323 323 323 325 326 327 329 330 329 327 327 328 329 329 331 332 331 334 335 334 334 340 344 343 340 335 335 332 329 333 336 340 357 357
322 322 322 322 321 322 321 321 320 320 320 321 321 323 324 326 326 327 326 328 329 329 328 327 328 329 330 330 331 330 332 332 336 339 339 341 342 338 329 332 336 338 341 344
322 321 321 320 320 319 320 318 316 316 316 317 319 319 321 322 324 326 328 327 327 329 327 326 326 327 328 330 330 328 327 327 327 340 339 337 333 334 334 332 331 337 340 342
323 321 319 319 318 318 317 315 314 315 315 315 316 318 320 322 323 324 325 328 327 325 325 327 326 326 327 328 328 329 328 326 327 334 342 337 335 329 328 329 331 334 336 339
323 321 319 318 317 318 316 315 314 314 314 316 317 318 318 320 322 323 325 326 326 326 326 326 326 327 327 326 326 327 328 328 326 326 335 339 339 332 327 328 329 330 334 337
323 321 320 319 317 316 315 314 314 314 314 316 316 317 317 322 324 324 326 325 326 326 326 327 326 326 326 325 326 326 328 327 327 327 327 334 336 335 332 330 330 336 337 342
322 321 320 319 316 316 316 315 314 313 313 313 314 315 316 318 320 323 325 325 325 325 325 326 325 325 324 324 324 325 326 327 327 327 326 326 327 331 332 331 332 332 333 341
321 320 320 318 316 315 314 313 312 311 310 310 310 313 312 313 314 317 319 322 324 325 325 326 325 324 324 324 324 325 325 325 327 327 327 326 326 326 325 327 328 328 326 329
321 320 319 317 316 314 313 312 312 310 309 309 309 308 308 308 310 312 313 314 318 323 324 326 326 325 325 326 325 325 324 325 325 325 326 326 325 325 324 324 326 327 329 330
320 319 318 317 317 316 313 312 311 311 310 308 309 307 306 306 308 309 309 310 313 322 324 325 325 325 325 324 324 325 324 324 323 323 324 326 326 325 325 324 324 323 324 325
Wind_Speed
21 22 19 14 16 16 16 19 18 20 31 28 14 14 17 25 11 6 8 4 7 3 6 16 17 22 24 25 24 26 24 26 27 26 22 21 23 22 24 22 23 22 25 22
20 19 19 15 11 8 15 13 14 16 16 2 19 13 7 12 20 6 11 11 2 4 3 11 17 18 22 22 26 27 25 24 24 22 19 18 16 18 19 21 23 24 25 20
16 16 15 16 13 14 16 11 11 11 13 9 9 15 17 20 4 13 11 7 8 7 8 7 18 20 19 20 18 21 19 22 24 24 22 19 17 17 19 18 20 25 23 22
15 15 15 14 21 20 18 15 17 16 18 14 14 15 19 18 13 10 10 9 8 7 7 13 15 19 19 18 17 20 20 20 22 23 21 20 18 18 17 17 20 22 24 25
12 12 11 19 21 16 11 18 16 15 16 15 13 10 17 16 14 12 10 11 13 19 9 17 14 19 22 18 18 19 20 22 21 24 21 19 17 18 17 18 17 19 18 21
5 7 9 8 12 16 5 10 15 13 14 14 13 7 12 16 17 16 14 16 12 18 9 15 14 19 19 19 20 24 23 22 21 22 20 19 18 19 17 18 17 19 21 23
11 6 7 5 14 15 4 6 12 15 15 14 12 10 16 16 16 19 20 15 13 11 17 7 23 22 21 18 18 20 19 20 21 21 20 19 19 19 18 17 15 19 23 25
10 12 6 14 3 6 8 11 12 13 14 13 13 14 15 17 16 18 18 23 19 14 5 13 17 18 20 20 20 21 22 21 22 21 20 20 21 19 18 18 17 18 20 20
8 8 12 17 16 14 14 11 12 12 13 13 13 13 15 15 15 15 20 22 24 21 1 10 13 13 17 18 21 22 22 23 23 21 22 21 23 22 21 21 19 18 18 18
10 13 14 14 14 13 11 11 12 12 12 14 13 14 14 14 12 13 19 18 22 22 19 5 10 14 16 17 21 23 23 23 22 23 24 22 24 24 24 23 21 20 20 20
18 15 5 14 11 9 11 11 11 12 13 14 14 14 13 11 11 12 16 18 20 19 21 18 11 15 17 21 23 24 24 23 24 24 27 24 27 28 29 28 29 25 27 23
9 10 9 10 11 10 10 12 13 13 13 14 13 13 14 9 11 10 13 16 14 19 19 23 22 10 17 20 27 25 24 24 24 24 26 27 26 24 31 30 29 33 27 26
9 11 11 12 13 15 15 14 14 15 14 15 17 18 18 12 14 9 11 13 18 11 17 19 20 18 15 20 19 26 26 26 26 30 29 32 28 26 22 34 35 31 36 32
14 11 11 14 13 15 15 18 20 21 21 20 21 21 19 18 19 20 13 11 19 16 11 15 18 18 14 11 13 11 27 32 30 30 28 25 29 30 28 22 27 31 35 38
15 15 16 17 18 18 24 23 20 18 16 18 22 21 21 17 17 19 21 22 20 17 19 12 13 18 15 12 14 16 21 24 22 28 24 19 34 31 29 29 26 29 29 37
14 15 16 16 17 18 19 19 19 19 20 24 23 22 23 24 23 23 23 24 22 18 18 15 16 15 15 14 12 12 15 19 23 22 14 17 11 22 19 20 22 30 27 31
12 13 14 15 15 15 16 16 16 17 24 25 27 30 30 28 24 23 24 26 26 26 26 20 18 21 16 11 12 15 13 15 16 18 22 15 14 28 32 29 29 45 33 31
9 12 15 15 15 16 18 21 22 23 21 25 28 29 29 26 20 25 22 24 26 27 27 29 25 19 18 15 13 15 12 13 10 13 8 5 6 6 24 32 44 37 23 35
12 12 15 16 20 21 23 23 24 26 28 28 27 26 28 29 29 29 29 29 25 22 24 28 31 30 27 24 19 17 19 15 10 15 15 17 17 14 6 35 40 37 33 34
12 14 16 18 22 26 24 26 29 28 29 28 28 28 27 27 28 29 28 26 27 27 26 31 32 30 27 25 28 22 24 22 14 13 15 17 19 23 30 41 41 26 30 15
11 15 18 21 25 26 27 27 26 24 27 26 25 26 29 30 28 28 26 19 26 29 34 31 30 30 29 27 27 23 23 24 20 19 18 22 20 16 22 28 21 20 24 19
11 12 15 20 24 24 26 25 25 25 26 25 26 26 27 28 27 26 28 28 29 30 29 29 30 28 28 30 30 30 30 25 21 17 19 21 20 17 15 15 14 18 27 26
12 13 14 17 20 22 28 27 28 28 29 27 27 26 26 27 24 19 14 25 26 25 23 23 26 29 30 30 29 26 27 30 28 23 18 20 21 21 21 18 15 24 26 20
10 13 15 15 21 23 23 30 28 29 31 30 31 31 31 27 26 26 26 26 28 29 28 30 31 32 32 30 28 24 27 27 29 29 29 27 20 20 29 32 35 37 28 31
14 15 14 15 16 15 22 26 27 28 31 31 33 30 33 31 28 32 32 31 29 27 29 29 29 31 31 24 24 27 26 28 28 26 25 27 24 23 24 24 24 29 31 21
14 15 15 13 15 17 19 24 24 26 29 30 31 35 35 34 31 32 30 33 31 30 29 26 25 23 22 23 24 21 25 27 28 29 30 26 25 25 26 27 26 26 26 27
14 16 16 16 13 12 13 16 20 24 28 31 28 34 35 36 31 33 33 33 34 28 25 18 17 17 19 21 23 23 23 21 28 31 28 25 27 29 28 30 30 33 34 32
Wind_Direction
233 266 273 219 216 221 250 275 284 190 247 186 175 270 22 321 305 115 135 101 140 270 166 170 186 180 187 187 192 197 204 197 198 198 208 213 210 209 201 209 215 219 211 209
248 250 260 263 264 261 217 240 265 280 297 273 146 127 109 271 287 23 58 41 72 182 203 181 181 173 184 187 190 200 199 198 187 186 207 216 217 212 211 220 226 218 209 208
240 235 257 258 250 251 263 255 262 254 266 292 164 154 151 237 12 38 25 39 357 334 178 227 179 176 178 190 191 195 195 189 180 184 195 206 214 210 215 221 215 213 205 200
238 220 231 249 235 223 232 52 26 12 18 29 21 15 56 45 36 24 8 342 319 288 190 181 192 184 188 190 197 189 177 175 176 179 190 202 211 211 221 210 207 207 201 201
226 234 230 22 24 11 136 57 31 25 22 8 2 350 43 34 25 3 339 343 348 315 201 167 179 175 172 187 197 187 175 179 177 180 188 194 200 215 203 204 205 209 199 188
246 247 277 113 353 340 312 78 22 25 24 12 1 341 26 18 9 356 358 354 347 334 335 148 164 155 171 186 187 186 187 186 185 184 189 192 196 203 202 197 200 200 187 191
201 275 68 9 337 316 293 56 29 30 25 23 22 356 1 11 14 356 344 353 348 351 327 191 166 169 174 191 188 192 191 190 187 187 192 198 192 194 194 192 195 189 181 179
278 238 104 329 356 51 97 65 42 31 31 19 12 4 1 356 8 359 352 351 349 339 13 118 152 167 175 187 189 188 191 193 187 190 193 201 189 188 192 187 181 188 179 177
34 98 81 60 67 49 63 59 33 25 17 11 10 7 0 349 7 356 353 346 341 338 114 144 163 195 182 184 177 187 193 191 188 190 197 201 189 180 187 186 188 194 186 187
117 110 95 75 56 40 50 40 21 14 7 2 0 354 357 346 1 352 351 350 344 336 343 191 174 176 189 187 188 190 196 192 189 192 199 202 193 187 188 192 197 195 202 198
92 34 65 64 39 22 32 16 4 360 358 347 344 340 338 340 345 356 346 349 346 338 333 339 186 189 195 201 195 194 200 197 196 194 198 207 200 195 200 204 202 201 206 206
65 36 13 12 343 19 6 352 344 345 339 329 330 323 316 322 329 356 337 339 348 342 337 337 341 221 207 213 195 197 204 203 204 201 198 207 205 212 209 213 217 216 213 212
20 22 350 337 345 355 345 334 333 331 319 322 316 314 316 314 314 329 322 337 325 340 334 328 336 316 242 218 227 211 206 209 209 210 208 198 204 205 216 214 222 224 221 221
19 2 346 346 337 335 325 327 324 318 314 313 316 314 313 316 314 322 315 311 308 319 322 325 324 325 343 335 300 287 231 224 214 218 216 209 206 201 207 220 211 223 224 222
358 345 337 334 333 334 331 329 324 317 315 310 308 309 309 310 311 312 311 311 298 302 305 298 308 313 323 317 313 313 305 292 267 246 252 254 215 210 204 209 220 212 214 218
346 343 346 338 333 331 328 322 317 315 314 312 312 305 300 300 300 302 302 303 302 295 287 295 292 286 289 288 294 303 315 299 289 286 310 317 316 328 0 323 228 228 207 207
348 350 343 337 335 327 324 327 327 321 313 306 308 309 307 307 289 286 289 289 290 294 301 274 260 275 269 265 276 269 267 276 288 298 281 298 342 319 308 305 310 268 222 211
357 346 354 337 332 332 325 320 313 310 307 307 308 304 295 295 297 303 282 280 284 285 290 296 293 274 281 261 259 271 266 271 271 265 262 235 295 322 327 287 284 292 267 214
359 357 348 336 336 333 328 325 323 322 318 311 304 299 300 297 290 286 285 297 278 273 278 282 284 283 281 280 263 264 267 259 261 265 231 226 227 243 285 287 269 274 289 1
347 354 0 347 355 347 342 339 331 321 313 311 304 298 293 291 290 289 284 275 277 286 276 277 283 287 288 278 266 252 255 264 250 241 240 222 219 214 212 237 258 246 243 217
339 2 7 1 354 354 354 342 329 323 318 312 307 301 298 291 285 284 282 276 273 268 276 285 267 271 279 278 277 274 245 259 255 213 224 233 229 228 252 265 292 307 294 263
357 354 6 3 2 353 355 345 336 327 323 317 313 307 299 295 290 285 279 273 275 276 274 275 277 281 274 269 268 273 277 268 262 281 213 220 223 229 239 247 265 282 277 273
340 346 359 0 3 5 358 356 348 344 337 332 329 327 323 309 293 286 284 284 279 275 278 271 274 280 282 292 279 277 273 266 271 273 275 242 233 227 224 223 244 248 267 267
4 359 359 1 357 2 2 358 355 352 350 346 342 338 344 329 327 319 303 299 292 284 275 274 272 275 280 278 282 287 264 269 253 261 267 270 264 250 246 243 244 252 244 226
24 9 7 16 9 10 7 5 4 1 357 354 351 346 345 341 332 327 324 318 306 300 288 276 271 274 274 269 269 270 269 265 270 258 254 259 268 269 274 280 284 277 275 275
48 20 4 358 8 18 7 16 13 7 2 356 356 353 350 346 343 339 333 324 310 299 293 281 272 267 266 272 265 269 266 262 262 266 267 268 271 271 274 279 281 281 289 286
43 27 10 353 8 15 21 18 17 8 5 1 354 358 357 354 348 354 349 345 342 335 338 316 300 284 276 271 273 274 291 284 257 263 272 275 265 264 262 253 254 268 278 284